EW0322 Weather Reports


Display with metric or nautical units.
time (UTC)temp
F
wind
direction
speed
MPH
gust
MPH
rain 1hr
in
rain 24hr
in
rain mn
in
humidity
%
barometer
mb
20211023064543 68 238 0.0 0.0 0.00 0.00 0.00 44 1004.3
20211023063107 69 238 0.0 0.0 0.00 0.00 0.00 43 1004.3
20211023061518 70 238 0.0 0.0 0.00 0.00 0.00 42 1004.3
20211023060019 70 238 0.0 0.0 0.00 0.00 0.00 42 1004.5
20211023054526 70 238 0.0 0.0 0.00 0.00 0.00 42 1004.8
20211023053023 70 238 0.0 0.0 0.00 0.00 0.00 42 1005.0
20211023051510 71 238 0.0 0.0 0.00 0.00 0.00 41 1005.0
20211023050024 71 238 0.0 0.0 0.00 0.00 0.00 41 1005.1
20211023044533 71 238 0.0 0.0 0.00 0.00 0.00 40 1005.1
20211023043008 72 238 0.0 0.0 0.00 0.00 0.00 40 1005.1
20211023041508 73 238 0.0 0.0 0.00 0.00 0.00 39 1005.1
20211023040031 73 238 0.0 0.0 0.00 0.00 0.00 40 1005.1
20211023034605 73 238 0.0 0.0 0.00 0.00 0.00 41 1005.2
20211023033009 74 238 0.0 0.0 0.00 0.00 0.00 40 1005.3
20211023031508 74 238 0.0 0.0 0.00 0.00 0.00 39 1005.2
20211023030006 75 238 0.0 0.0 0.00 0.00 0.00 38 1005.2
20211023024512 76 238 0.0 0.0 0.00 0.00 0.00 37 1005.3
20211023023009 77 238 0.0 0.0 0.00 0.00 0.00 36 1005.3
20211023021504 77 238 0.0 0.0 0.00 0.00 0.00 36 1005.3
20211023020007 77 238 0.0 0.0 0.00 0.00 0.00 36 1005.3
20211023014503 77 238 0.0 0.0 0.00 0.00 0.00 35 1005.4
20211023013015 78 238 0.0 0.0 0.00 0.00 0.00 34 1005.3
20211023011502 79 238 0.0 0.0 0.00 0.00 0.00 33 1005.2
20211023010002 80 238 0.0 0.0 0.00 0.00 0.00 33 1005.2
20211023004502 80 238 0.0 0.0 0.00 0.00 0.00 32 1005.1
20211023003118 81 238 0.0 0.0 0.00 0.00 0.00 31 1005.1
20211023001614 82 238 0.0 0.0 0.00 0.00 0.00 30 1005.1
20211023000214 83 238 0.0 0.0 0.00 0.00 0.00 29 1005.0
20211022234805 84 238 0.0 1.0 0.00 0.00 0.00 28 1005.0
20211022233129 84 238 0.0 2.0 0.00 0.00 0.00 28 1005.0
20211022231620 84 238 0.0 4.0 0.00 0.00 0.00 28 1005.3
20211022230145 85 237 2.0 4.0 0.00 0.00 0.00 29 1005.2
20211022224652 85 233 0.0 4.0 0.00 0.00 0.00 29 1005.4
20211022223137 85 234 1.0 4.0 0.00 0.00 0.00 28 1005.5
20211022221711 85 236 2.0 5.0 0.00 0.00 0.00 29 1005.6
20211022220118 86 217 0.0 4.0 0.00 0.00 0.00 28 1005.8
20211022214731 85 219 0.0 4.0 0.00 0.00 0.00 30 1006.0
20211022213105 84 217 2.0 5.0 0.00 0.00 0.00 31 1006.1
20211022211545 84 201 1.0 5.0 0.00 0.00 0.00 31 1006.3
20211022210127 83 203 0.0 4.0 0.00 0.00 0.00 31 1006.5
20211022204542 84 200 0.0 4.0 0.00 0.00 0.00 31 1006.8
20211022203117 84 236 0.0 2.0 0.00 0.00 0.00 31 1007.1
20211022201530 83 237 0.0 5.0 0.00 0.00 0.00 32 1007.4
20211022200037 82 161 2.0 6.0 0.00 0.00 0.00 33 1007.6
20211022194539 81 200 1.0 4.0 0.00 0.00 0.00 33 1008.1
20211022193036 81 206 0.0 6.0 0.00 0.00 0.00 33 1008.3
20211022191531 81 222 2.0 4.0 0.00 0.00 0.00 33 1008.7
20211022190022 80 205 0.0 4.0 0.00 0.00 0.00 34 1009.2
20211022184513 80 216 0.0 3.0 0.00 0.00 0.00 34 1009.5
20211022183017 78 34 0.0 6.0 0.00 0.00 0.00 35 1009.9
20211022181508 78 22 0.0 5.0 0.00 0.00 0.00 35 1010.2
20211022180001 78 21 0.0 4.0 0.00 0.00 0.00 35 1010.5
20211022174630 78 19 0.0 4.0 0.00 0.00 0.00 37 1010.9
20211022173126 76 18 0.0 4.0 0.00 0.00 0.00 38 1011.1
20211022171559 76 17 0.0 3.0 0.00 0.00 0.00 39 1011.3
20211022170101 75 15 0.0 0.0 0.00 0.00 0.00 39 1011.4
20211022164559 74 15 0.0 2.0 0.00 0.00 0.00 40 1011.7
20211022163048 72 15 0.0 2.0 0.00 0.00 0.00 41 1011.8
20211022161537 71 15 0.0 0.0 0.00 0.00 0.00 39 1011.9
20211022160132 70 15 0.0 0.0 0.00 0.00 0.00 39 1012.0
20211022154525 68 15 0.0 0.0 0.00 0.00 0.00 40 1012.1
20211022153039 67 15 0.0 2.0 0.00 0.00 0.00 42 1012.3
20211022151522 65 15 0.0 3.0 0.00 0.00 0.00 44 1012.4
20211022150011 63 15 0.0 2.0 0.00 0.00 0.00 45 1012.4
20211022144519 62 15 0.0 2.0 0.00 0.00 0.00 45 1012.3
20211022143003 63 15 0.0 0.0 0.00 0.00 0.00 48 1012.2
20211022141629 61 15 0.0 0.0 0.00 0.00 0.00 49 1012.2
20211022140113 60 15 0.0 0.0 0.00 0.00 0.00 50 1012.1
20211022134627 59 15 0.0 0.0 0.00 0.00 0.00 51 1012.1
20211022133130 59 15 0.0 0.0 0.00 0.00 0.00 50 1012.1
20211022131653 59 15 0.0 0.0 0.00 0.00 0.00 50 1012.0
20211022130119 59 15 0.0 0.0 0.00 0.00 0.00 51 1011.9
20211022124557 59 15 0.0 0.0 0.00 0.00 0.00 51 1011.8
20211022123057 60 15 0.0 0.0 0.00 0.00 0.00 55 1011.9
20211022121628 61 15 0.0 0.0 0.00 0.00 0.00 55 1011.8
20211022120042 61 15 0.0 0.0 0.00 0.00 0.00 54 1011.8
20211022114614 61 15 0.0 0.0 0.00 0.00 0.00 53 1011.7
20211022113036 61 15 0.0 0.0 0.00 0.00 0.00 52 1011.5
20211022111552 61 15 0.0 0.0 0.00 0.00 0.00 53 1011.6
20211022110108 61 15 0.0 0.0 0.00 0.00 0.00 53 1011.5
20211022104604 62 15 0.0 0.0 0.00 0.00 0.00 53 1011.6
20211022103057 63 15 0.0 0.0 0.00 0.00 0.00 52 1011.7
20211022101522 64 15 0.0 0.0 0.00 0.00 0.00 51 1011.8
20211022100037 65 15 0.0 0.0 0.00 0.00 0.00 52 1011.9
20211022094521 64 15 0.0 0.0 0.00 0.00 0.00 51 1012.0
20211022093018 65 15 0.0 0.0 0.00 0.00 0.00 50 1012.1
20211022091600 65 15 0.0 0.0 0.00 0.00 0.00 50 1012.2
20211022090019 66 15 0.0 0.0 0.00 0.00 0.00 49 1012.2
20211022084515 66 15 0.0 0.0 0.00 0.00 0.00 49 1012.4
20211022083036 65 15 0.0 0.0 0.00 0.00 0.00 47 1012.4
20211022081514 65 15 0.0 0.0 0.00 0.00 0.00 45 1012.5
20211022080012 65 14 0.0 0.0 0.00 0.00 0.00 43 1012.6
20211022074508 65 15 0.0 0.0 0.00 0.00 0.00 40 1012.6
20211022073014 64 15 0.0 0.0 0.00 0.00 0.00 40 1012.7
20211022071509 65 14 0.0 0.0 0.00 0.00 0.00 40 1012.9